Find Starlink 36214

NORAD ID: 67129 Int'l Des: 2025-299 Owner: SPXS Country: US Constellation: starlink operational
LEOCIRCULAR

当前视图

正在加载3D地球...

About Starlink 36214

Starlink 36214 (NORAD 67129) is a starlink constellation satellite (v2 mini) launched Dec 15, 2025 by SPXS of US. It operates in LEO, CIRCULAR orbit with a mass of 575.00 kg.

关于 Starlink 36214

正在加载描述...

即将过境

Passes for default location (London). Set your location on the main map for personalized predictions.

高度历史

Loading altitude history...

两行轨道根数

1 67129U 25299AD 26194.30622659 .00009741 00000-0 36295-3 0 9996
2 67129 42.9994 179.9181 0001479 275.6884 84.3799 15.27588624 32329
Epoch: Jul 13, 2026 • Age: 34 hours

当前状态

高度 492.8 km
远地点 / 近地点 N/A
速度 7.62 km/s
星下点 -36.35°S, 149.2°W
发射日期 Dec 15, 2025
运行时间 0.5 years
类型 internet

技术详情

分类 Payload
质量 575.00 kg
干质量 530.00 kg
总质量 575.00 kg
长度 0.30 m
直径 4.10 m
跨度 29.00 m
形状 Box + pan
制造商 SPXS
平台类型 Starlink V2MO
阶段状态 In Orbit
所有者/国家 SPXS/US

Most Searched